When you browse on this site, cookies collect data to enhance your experience and personalize the content and advertising you see.
Visit our Privacy Policy to learn more. By continuing to use the site, you agree to this use of cookies and data.
  • en France
  • Liste des pays
  • À 7 jours
  • Température de l'eau
  • Carte satellitaire
  • Carte météo
  • Widgets météo
  • user-avatar
    Se connecter

    Météo par heure à Caen

    Ce jour, 23 Juillet, Mardi

    Heure Température Précipitation Vent Pression Humidité
    00:00 +18°C° 0 mm 2 m/s 764 mmHg 86%
    01:00 +18°C° 0 mm 2 m/s 763 mmHg 87%
    02:00 +18°C° 0 mm 2 m/s 763 mmHg 88%
    03:00 +17°C° 0 mm 2 m/s 763 mmHg 89%
    04:00 +18°C° 0 mm 2 m/s 763 mmHg 86%
    05:00 +19°C° 0 mm 2 m/s 762 mmHg 82%
    06:00 +20°C° 0 mm 2 m/s 762 mmHg 79%
    07:00 +24°C° 0 mm 3 m/s 762 mmHg 73%
    08:00 +26°C° 0 mm 3 m/s 761 mmHg 68%
    09:00 +29°C° 0 mm 3 m/s 761 mmHg 62%
    10:00 +32°C° 0 mm 4 m/s 761 mmHg 57%
    11:00 +34°C° 0 mm 4 m/s 760 mmHg 52%
    12:00 +35°C° 0 mm 4 m/s 760 mmHg 47%
    13:00 +36°C° 0 mm 4 m/s 760 mmHg 45%
    14:00 +37°C° 0 mm 4 m/s 759 mmHg 43%
    15:00 +37°C° 0 mm 4 m/s 759 mmHg 41%
    16:00 +37°C° 0 mm 4 m/s 758 mmHg 45%
    17:00 +36°C° 0 mm 4 m/s 758 mmHg 49%
    18:00 +35°C° 0 mm 4 m/s 757 mmHg 52%
    19:00 +34°C° 0 mm 5 m/s 757 mmHg 51%
    20:00 +33°C° 0 mm 5 m/s 757 mmHg 49%
    21:00 +30°C° 0 mm 6 m/s 757 mmHg 47%
    22:00 +29°C° 0.2 mm 5 m/s 757 mmHg 51%
    23:00 +28°C° 0.2 mm 5 m/s 757 mmHg 55%

    Demain, 24 Juillet, Mercredi

    Heure Température Précipitation Vent Pression Humidité
    00:00 +26°C° 0.2 mm 4 m/s 757 mmHg 59%
    01:00 +25°C° 0.1 mm 4 m/s 757 mmHg 67%
    02:00 +23°C° 0.1 mm 4 m/s 757 mmHg 76%
    03:00 +21°C° 0.1 mm 4 m/s 757 mmHg 84%
    04:00 +21°C° 0 mm 4 m/s 757 mmHg 87%
    05:00 +21°C° 0 mm 3 m/s 757 mmHg 89%
    06:00 +20°C° 0 mm 3 m/s 757 mmHg 92%
    07:00 +22°C° 0 mm 3 m/s 758 mmHg 84%
    08:00 +24°C° 0 mm 2 m/s 758 mmHg 75%
    09:00 +26°C° 0 mm 2 m/s 758 mmHg 67%
    10:00 +27°C° 0 mm 2 m/s 758 mmHg 64%
    11:00 +28°C° 0 mm 2 m/s 758 mmHg 60%
    12:00 +29°C° 0 mm 2 m/s 758 mmHg 56%
    13:00 +29°C° 0 mm 2 m/s 758 mmHg 56%
    14:00 +29°C° 0 mm 3 m/s 758 mmHg 56%
    15:00 +29°C° 0 mm 3 m/s 758 mmHg 55%
    16:00 +27°C° 0 mm 3 m/s 758 mmHg 59%
    17:00 +26°C° 0 mm 3 m/s 758 mmHg 63%
    18:00 +24°C° 0 mm 3 m/s 757 mmHg 66%
    19:00 +22°C° 0 mm 3 m/s 758 mmHg 68%
    20:00 +21°C° 0 mm 3 m/s 758 mmHg 69%
    21:00 +20°C° 0 mm 3 m/s 758 mmHg 70%
    22:00 +21°C° 0 mm 3 m/s 757 mmHg 73%
    23:00 +21°C° 0 mm 3 m/s 757 mmHg 75%

    Après-demain, 25 Juillet, Jeudi

    Heure Température Précipitation Vent Pression Humidité
    00:00 +21°C° 0 mm 3 m/s 757 mmHg 78%
    01:00 +21°C° 0 mm 3 m/s 757 mmHg 80%
    02:00 +22°C° 0 mm 3 m/s 756 mmHg 82%
    03:00 +22°C° 0 mm 3 m/s 756 mmHg 84%
    04:00 +24°C° 0 mm 3 m/s 756 mmHg 80%
    05:00 +25°C° 0 mm 2 m/s 756 mmHg 76%
    06:00 +26°C° 0 mm 2 m/s 756 mmHg 72%
    07:00 +28°C° 0 mm 2 m/s 756 mmHg 65%
    08:00 +30°C° 0 mm 3 m/s 756 mmHg 59%
    09:00 +33°C° 0 mm 3 m/s 756 mmHg 53%
    10:00 +35°C° 0 mm 4 m/s 755 mmHg 46%
    11:00 +37°C° 0 mm 5 m/s 755 mmHg 40%
    12:00 +40°C° 0 mm 6 m/s 755 mmHg 33%
    13:00 +38°C° 0 mm 6 m/s 755 mmHg 37%
    14:00 +36°C° 0 mm 5 m/s 755 mmHg 42%
    15:00 +35°C° 0 mm 5 m/s 755 mmHg 46%
    16:00 +32°C° 0 mm 5 m/s 755 mmHg 54%
    17:00 +29°C° 0 mm 4 m/s 755 mmHg 62%
    18:00 +26°C° 0 mm 3 m/s 755 mmHg 71%
    19:00 +24°C° 0.1 mm 3 m/s 756 mmHg 75%
    20:00 +23°C° 0.1 mm 2 m/s 757 mmHg 79%
    21:00 +21°C° 0.1 mm 1 m/s 757 mmHg 83%
    22:00 +21°C° 0.2 mm 1 m/s 757 mmHg 84%
    23:00 +20°C° 0.2 mm 1 m/s 757 mmHg 85%

    26 Juillet, Vendredi

    Heure Température Précipitation Vent Pression Humidité
    00:00 +20°C° 0.2 mm 1 m/s 757 mmHg 86%
    01:00 +20°C° 0 mm 1 m/s 757 mmHg 86%
    02:00 +19°C° 0 mm 1 m/s 757 mmHg 86%
    03:00 +19°C° 0 mm 1 m/s 757 mmHg 87%
    04:00 +20°C° 0 mm 1 m/s 757 mmHg 87%
    05:00 +20°C° 0 mm 1 m/s 758 mmHg 88%
    06:00 +20°C° 0 mm 1 m/s 758 mmHg 88%
    07:00 +21°C° 0 mm 1 m/s 758 mmHg 84%
    08:00 +22°C° 0 mm 1 m/s 758 mmHg 80%
    09:00 +23°C° 0 mm 1 m/s 759 mmHg 76%
    10:00 +23°C° 0 mm 2 m/s 758 mmHg 77%
    11:00 +22°C° 0 mm 3 m/s 758 mmHg 77%
    12:00 +22°C° 0 mm 4 m/s 758 mmHg 78%
    13:00 +24°C° 0 mm 3 m/s 758 mmHg 75%
    14:00 +24°C° 0 mm 3 m/s 758 mmHg 73%
    15:00 +24°C° 0 mm 2 m/s 757 mmHg 70%
    16:00 +22°C° 0.2 mm 3 m/s 757 mmHg 74%
    17:00 +21°C° 0.2 mm 4 m/s 757 mmHg 78%
    18:00 +20°C° 0.2 mm 4 m/s 757 mmHg 81%
    19:00 +19°C° 0.2 mm 4 m/s 757 mmHg 85%
    20:00 +18°C° 0.2 mm 3 m/s 757 mmHg 89%
    21:00 +17°C° 0.2 mm 3 m/s 757 mmHg 93%
    22:00 +17°C° 0.1 mm 3 m/s 757 mmHg 93%
    23:00 +17°C° 0.1 mm 4 m/s 757 mmHg 93%

    27 Juillet, Samedi

    Heure Température Précipitation Vent Pression Humidité
    00:00 +17°C° 0.1 mm 4 m/s 757 mmHg 93%
    01:00 +17°C° 0.2 mm 4 m/s 756 mmHg 94%
    02:00 +16°C° 0.2 mm 5 m/s 756 mmHg 94%
    03:00 +16°C° 0.2 mm 5 m/s 755 mmHg 95%
    04:00 +16°C° 0.2 mm 5 m/s 755 mmHg 94%
    05:00 +16°C° 0.2 mm 5 m/s 755 mmHg 93%
    06:00 +17°C° 0.2 mm 4 m/s 755 mmHg 93%
    07:00 +16°C° 0.1 mm 5 m/s 755 mmHg 92%
    08:00 +17°C° 0.1 mm 5 m/s 755 mmHg 92%
    09:00 +17°C° 0.1 mm 5 m/s 755 mmHg 91%
    10:00 +17°C° 0.7 mm 5 m/s 755 mmHg 89%
    11:00 +17°C° 0.7 mm 6 m/s 755 mmHg 88%
    12:00 +17°C° 0.7 mm 6 m/s 755 mmHg 87%
    13:00 +17°C° 1.1 mm 6 m/s 755 mmHg 89%
    14:00 +16°C° 1.1 mm 5 m/s 755 mmHg 90%
    15:00 +17°C° 1.1 mm 4 m/s 755 mmHg 92%
    16:00 +17°C° 1.1 mm 4 m/s 755 mmHg 93%
    17:00 +17°C° 1.1 mm 3 m/s 755 mmHg 93%
    18:00 +17°C° 1.1 mm 3 m/s 755 mmHg 94%
    19:00 +17°C° 0 mm 3 m/s 756 mmHg 94%
    20:00 +16°C° 0 mm 3 m/s 756 mmHg 94%
    21:00 +16°C° 0 mm 3 m/s 756 mmHg 94%
    22:00 +15°C° 0 mm 4 m/s 756 mmHg 95%
    23:00 +14°C° 0 mm 4 m/s 756 mmHg 96%

    28 Juillet, Dimanche

    Heure Température Précipitation Vent Pression Humidité
    00:00 +14°C° 0 mm 4 m/s 756 mmHg 96%
    01:00 +14°C° 0 mm 4 m/s 756 mmHg 97%
    02:00 +14°C° 0 mm 4 m/s 756 mmHg 97%
    03:00 +14°C° 0 mm 4 m/s 756 mmHg 97%
    04:00 +14°C° 0 mm 4 m/s 756 mmHg 97%
    05:00 +14°C° 0 mm 4 m/s 756 mmHg 96%
    06:00 +15°C° 0 mm 4 m/s 757 mmHg 96%
    07:00 +17°C° 0 mm 4 m/s 757 mmHg 90%
    08:00 +18°C° 0 mm 4 m/s 757 mmHg 84%
    09:00 +19°C° 0 mm 4 m/s 757 mmHg 78%
    10:00 +20°C° 0 mm 4 m/s 757 mmHg 73%
    11:00 +21°C° 0 mm 4 m/s 757 mmHg 67%
    12:00 +22°C° 0 mm 4 m/s 757 mmHg 61%
    13:00 +22°C° 0.2 mm 4 m/s 757 mmHg 65%
    14:00 +22°C° 0.2 mm 4 m/s 757 mmHg 68%
    15:00 +21°C° 0.2 mm 4 m/s 757 mmHg 71%
    16:00 +21°C° 0.1 mm 4 m/s 758 mmHg 71%
    17:00 +20°C° 0.1 mm 4 m/s 758 mmHg 71%
    18:00 +20°C° 0.1 mm 4 m/s 758 mmHg 72%
    19:00 +18°C° 0 mm 4 m/s 758 mmHg 79%
    20:00 +16°C° 0 mm 3 m/s 759 mmHg 86%
    21:00 +13°C° 0 mm 3 m/s 759 mmHg 93%
    22:00 +13°C° 0 mm 3 m/s 760 mmHg 94%
    23:00 +13°C° 0 mm 3 m/s 760 mmHg 95%
    Voir plus